Location: Palombina Nuova
(43.6167°N, 13.4000°E)
Time: 06:17:22
(UTC+00:00)

Cosmos 1725 Rocket - Pass Details

Date: 17 February 2020
Orbit: 963 x 990 km, 82.9° (Epoch: 09 April)

Event Time Altitude Azimuth Distance (km) Brightness Sun altitude
Rises 05:19:24 0° 350° (N) 3,680 6.8 -8.5°
Reaches altitude 10° 05:21:55 10° 349° (N) 2,732 6.2 -8.1°
Maximum altitude 05:28:10 78° 265° (W) 1,007 4.0 -7.0°
Drops below altitude 10° 05:34:26 10° 180° (S) 2,732 6.5 -5.9°
Sets 05:36:56 0° 179° (S) 3,679 7.2 -5.4°
